Location: Ferques
(50.8300°N, 1.7599°E)
Time: 17:04:59
(UTC+00:00)

Meteor 1-26 Rocket - Pass Details

Date: 19 May 2025
Orbit: 805 x 928 km, 81.3° (Epoch: 12 June)

Event Time Altitude Azimuth Distance (km) Brightness Sun altitude
Exits shadow 20:53:43 - 175° (S) 3,022 6.6 -9.4°
Reaches altitude 10° 20:54:58 10° 173° (S) 2,558 6.2 -9.5°
Maximum altitude 21:00:41 58° 96° (E) 1,055 4.5 -10.1°
Drops below altitude 10° 21:06:35 10° 19° (NNE) 2,634 7.2 -10.7°
Sets 21:09:07 0° 16° (NNE) 3,587 8.0 -10.9°
